Regional Weather Roundup
Issued by NWS Upton, NY

Current Version | Previous Version | Text Only | Print | Product List | Glossary On
Versions: 1 2 3 4 5 6 7 8 9 10 11 12 13 14 15 16 17 18 19 20 21 22 23 24 25 26 27 28 29 30 31 32 33 34 35 36 37 38 39 40 41 42 43 44 45 46 47 48 49 50
264 ASUS41 KOKX 171008 RWROKX REGIONAL WEATHER ROUNDUP NATIONAL WEATHER SERVICE NEW YORK NY 500 AM EST TUE JAN 17 2017 NOTE: "FAIR" INDICATES FEW OR NO CLOUDS BELOW 12,000 FEET WITH NO SIGNIFICANT WEATHER AND/OR OBSTRUCTIONS TO VISIBILITY. NYZ071-072-176-178-NJZ106-104-171100- NEW YORK CITY METRO AREA CITY SKY/WX TMP DP RH WIND PRES REMARKS Central Park CLOUDY 40 27 59 W6 30.24F Wall St Helipt CLOUDY 40 27 59 W7 30.24F Bronx Bot Gard NOT AVBL LaGuardia APRT CLOUDY 42 28 57 W8 30.22F Kennedy INTL MOCLDY 40 28 62 SW10 30.24F WCI 33 Breezy Point N/A 37 N/A N/A W8 N/A WCI 31 Newark/Liberty CLOUDY 39 26 59 SW7 30.23F WCI 34 Teterboro CLOUDY 39 28 64 SW5 30.22F $$ NYZ177-179-078>081-171100- LONG ISLAND NEW YORK CITY SKY/WX TMP DP RH WIND PRES REMARKS Jones Beach N/A 39 N/A N/A W9 N/A WCI 33 Matinecock PT NOT AVBL Farmingdale CLOUDY 39 28 64 W8 30.22F WCI 33 MacArthur/ISP CLOUDY 39 28 64 W5 30.22S Shirley CLOUDY 36 29 75 CALM 30.23S Westhampton PTCLDY 30 25 81 CALM 30.25R Southampton NOT AVBL Bridgehampton NOT AVBL East Hampton N/A 37 26 67 CALM 30.23R Montauk N/A 39 30 70 W5 30.22F $$ NYZ052-065-067-171100- HUDSON VALLEY CITY SKY/WX TMP DP RH WIND PRES REMARKS White Plains MOCLDY 36 25 64 CALM 30.19F Newburgh CLOUDY 34 28 80 SW6 30.21F WCI 29 Montgomery CLOUDY 34 27 75 SW5 30.18F WCI 30 Poughkeepsie CLOUDY 31 26 82 CALM 30.21S Albany CLOUDY 21 16 81 CALM 30.23S $$ NJZ001-105-106-008-010-013-015-019>022-104-171100- NEW JERSEY CITY SKY/WX TMP DP RH WIND PRES REMARKS Newark/Liberty CLOUDY 39 26 59 SW7 30.23F WCI 34 Teterboro CLOUDY 39 28 64 SW5 30.22F Caldwell CLOUDY 38 26 62 SW3 30.22F Somerville CLOUDY 36 26 67 CALM 30.21F Linden PTSUNNY 38 25 58 CALM 30.23F Sussex CLOUDY 34 27 75 CALM 30.20F Andover N/A 33 27 78 SW3 30.20F Trenton CLOUDY 38 28 67 CALM 30.22F Millville LGT RAIN 37 36 96 CALM 30.25F Atlantic City CLOUDY 37 30 75 CALM 30.24F Wrightstown CLOUDY 38 26 64 CALM 30.20F Toms River CLOUDY 38 27 64 CALM 30.24F Belmar CLOUDY 38 26 62 CALM 30.23F $$ PAZ047>061-062-071-171100- EASTERN PENNSYLVANIA CITY SKY/WX TMP DP RH WIND PRES REMARKS Philadelphia CLOUDY 39 30 70 CALM 30.26S Allentown CLOUDY 36 27 69 CALM 30.22F Scranton CLOUDY 35 28 75 CALM 30.18F $$ CTZ002-004>006-009-010-012-RIZ004-006-007-MAZ004-011-015-171100- SOUTHERN NEW ENGLAND IN CT CITY SKY/WX TMP DP RH WIND PRES REMARKS Bradley INTL CLOUDY 29 23 78 CALM 30.22R Hartford CLOUDY 31 27 85 CALM 30.23R Danbury CLOUDY 34 26 72 W3 30.22S Wtrbury/Oxford CLOUDY 36 23 60 CALM 30.20S Bridgeport CLOUDY 39 27 62 W5 30.22F Meriden CLOUDY 33 28 81 CALM 30.22R New Haven CLOUDY 37 28 70 CALM 30.22S Chester CLOUDY 36 27 69 NW3 30.20R Groton MOCLDY 37 28 70 CALM 30.21S Wilimantic CLOUDY 30 25 81 CALM 30.22R IN RI CITY SKY/WX TMP DP RH WIND PRES REMARKS Providence MOCLDY 32 24 72 SW3 30.21S Block Island NOT AVBL Westerly CLOUDY 38 27 64 CALM 30.21F IN MA CITY SKY/WX TMP DP RH WIND PRES REMARKS Boston PTCLDY 33 19 56 W5 30.20S WCI 29 Worcester CLOUDY 33 15 47 W16 30.15S WCI 23 Westfield CLOUDY 26 22 84 CALM 30.21S Provincetown CLEAR 37 26 64 NW10 30.20S WCI 30 Nantucket CLOUDY 39 32 76 W9 30.20F WCI 33 $$ ANZ330-335-338-340-345-350-353-355-171100- COASTAL MARINE OBSERVATIONS STATION/POSITION TIME SKY/WX TEMP WIND PRES VSBY WAVE AIR SEA DIR/SP/G HT/PER (UTC) (F) (DEG/KT/KT) (MB) (MI) (FT/S) NY HARB ENTRANCE 0850 41 43 250/ 12/ 12 1024.2 2/ 8 20 S FIRE ISLAND 0850 43 45 250/ 14/ 16 1023.8 2/ 4 GREAT SOUTH BAY NOT AVBL 23 SSW MONTAUK P 0850 44 48 250/ 17/ 21 1023.5 4/ 5 15 E BARNEGAT LI 0930 45 N/A 1/10 HUDSON CANYON 0850 47 53 1024.6 2/ 7 KINGS POINT 0948 38 1023.1 EXECUTION ROCKS 0945 40 250/ 6/ 8 N/A CENTRAL LI SOUND 0915 40 270/ 8/ 10 N/A 1/ 3 EASTERN LI SOUND NOT AVBL ROBBINS REEF 0948 39 260/ 8/ 10 1023.8 $$ >>>>>>>>>>>>>>>>>>>>>>>>>>>> KEY <<<<<<<<<<<<<<<<<<<<<<<<<<< > < > SKY/WX - Sky Condition/Present Weather < > TMP - Temperature in Fahrenheit < > DP - Dew Point in Fahrenheit < > RH - Relative Humidity in Percent < > WIND - Direction (from) and Speed in MPH < > PRES - Mean Sea Level Pressure (inches of Hg) < > WCI - Wind Chill Index < > VSB - VISIBILITY IN MILES < > HX - HEAT INDEX < > TC - TEMPERATURE IN CELSIUS < > VRB - VARIABLE WIND DIRECTION < > < >>>>>>>>>>>>>>>>>>>>>>>>>>>> KEY <<<<<<<<<<<<<<<<<<<<<<<<<<<

USA.gov is the U.S. government's official web portal to all federal, state and local government web resources and services.